Regional Weather Roundup
Issued by NWS

Home | Current Version | Previous Version | Graphics & Text | Print | Product List | Glossary On
Versions: 1 2 3 4 5 6 7 8 9 10 11 12 13 14 15 16 17 18 19 20 21 22 23 24 25 26 27 28 29 30 31 32 33 34 35 36 37 38 39 40 41 42 43 44 45 46 47 48 49 50
000
ASUS44 KMEG 280400
RWRTN
TENNESSEE HOURLY STATE WEATHER ROUNDUP
NATIONAL WEATHER SERVICE MEMPHIS TN
1100 PM CDT WED APR 27 2016

TNZ002-004-019-021-049-052-054-088>092-280500-
WEST TENNESSEE

CITY           SKY/WX    TMP DP  RH WIND       PRES   REMARKS
MEMPHIS INTL   PTCLDY    70  66  87 S9        29.75R
NWS MEMPHIS      N/A     68 N/A N/A MISG        N/A
JACKSON        CLEAR     66  64  93 CALM      29.75R
DYERSBURG      CLEAR     66  63  88 S6        29.75S
UNION CITY     CLEAR     64  64 100 S7        29.73S
LEXINGTON      MOCLDY    66  66 100 S6        29.75R
$$

TNZ008-025-027-028-033-062-065-066-280500-
NORTH MIDDLE TENNESSEE

CITY           SKY/WX    TMP DP  RH WIND       PRES   REMARKS
NASHVILLE      MOCLDY    67  63  87 SE6       29.78F
CLARKSVILLE    PTCLDY    62  60  93 SE3       29.76S
COOKEVILLE     CLEAR     63  63 100 CALM      29.82S
CROSSVILLE     CLOUDY    62  59  90 CALM      29.87F
$$

TNZ061-075-076-078-094-096-097-280500-
SOUTH MIDDLE TENNESSEE

CITY           SKY/WX    TMP DP  RH WIND       PRES   REMARKS
TULLAHOMA      CLEAR     63  63 100 CALM      29.83S
WINCHESTER     PTCLDY    66  63  88 S3        29.82S
MCMINNVILLE    CLOUDY    63  63 100 CALM      29.82F VSB 1/2
COLUMBIA       CLEAR    N/A N/A N/A CALM      29.76F
SHELBYVILLE    MOCLDY    66  64  94 SE3       29.81S
$$

TNZ017-018-042-046-047-280500-
NORTHEAST TENNESSEE

CITY           SKY/WX    TMP DP  RH WIND       PRES   REMARKS
TRI CITIES     TSTM      62  60  93 N8        29.87F FOG
$$

TNZ012-013-036-069-073-074-280500-
CENTRAL EAST TENNESSEE

CITY           SKY/WX    TMP DP  RH WIND       PRES   REMARKS
KNOXVILLE      LGT RAIN  73  60  63 W9        29.83R
OAK RIDGE      HVY RAIN  65  61  87 W8G23     29.89R FOG
GATLINBURG     PTCLDY    66  57  72 CALM      29.83R
$$

TNZ083-085-099-280500-
SOUTHEAST TENNESSEE

CITY           SKY/WX    TMP DP  RH WIND       PRES   REMARKS
CHATTANOOGA    CLOUDY    68  65  90 CALM      29.83S
$$

SKY/WX REPORTED AS FAIR MEANS FEW OR NO CLOUDS BELOW
12 THOUSAND FEET.





USA.gov is the U.S. government's official web portal to all federal, state and local government web resources and services.